UAE5W OJAI-OMDB

Flight info

Callsign UAE5W
Flight time 2h 22m
Altitude 39000
Route KULDI DCT NEVOL Q255 LUDEP P559 VUTEB
Aircraft A388/J-SADE2E3FGHIJ3J4J5M1RWXY/LB1D1

Departure

Time 2026-05-05 15:33
Airport Queen Alia International Airport (OJAI)

Arrival

Time 2026-05-05 17:55
Airport Dubai International Airport (OMDB)
Time Latitude Longitude Altitude Speed Heading
2026-05-05 14:42 31.72436 35.98845 2421 ft 0 kts 159°
2026-05-05 15:26 31.72297 35.98934 2420 ft 16 kts 106°
2026-05-05 15:26 31.72314 35.99029 2420 ft 9 kts 55°
2026-05-05 15:26 31.72328 35.99052 2422 ft 11 kts 55°
2026-05-05 15:26 31.72389 35.99125 2420 ft 8 kts 352°
2026-05-05 15:27 31.72458 35.99112 2421 ft 12 kts 350°
2026-05-05 15:27 31.72539 35.99095 2421 ft 12 kts 349°
2026-05-05 15:27 31.72571 35.99068 2421 ft 3 kts 265°
2026-05-05 15:27 31.72564 35.98984 2420 ft 12 kts 271°
2026-05-05 15:28 31.72597 35.98924 2420 ft 7 kts 341°
2026-05-05 15:28 31.72652 35.98914 2420 ft 6 kts 20°
2026-05-05 15:28 31.72681 35.98959 2420 ft 9 kts 77°
2026-05-05 15:28 31.72699 35.99062 2423 ft 17 kts 80°
2026-05-05 15:29 31.72723 35.99229 2419 ft 24 kts 80°
2026-05-05 15:29 31.72755 35.99443 2422 ft 29 kts 80°
2026-05-05 15:29 31.72785 35.99656 2423 ft 28 kts 80°
2026-05-05 15:29 31.72819 35.99871 2421 ft 25 kts 79°
2026-05-05 15:30 31.72851 36.00092 2422 ft 29 kts 81°
2026-05-05 15:30 31.72885 36.00326 2423 ft 26 kts 81°
2026-05-05 15:30 31.72916 36.00552 2422 ft 30 kts 81°
2026-05-05 15:30 31.72954 36.00759 2420 ft 14 kts 54°
2026-05-05 15:31 31.73041 36.00783 2421 ft 13 kts 347°
2026-05-05 15:31 31.73131 36.00767 2421 ft 12 kts 352°
2026-05-05 15:31 31.73207 36.00739 2419 ft 9 kts 306°
2026-05-05 15:31 31.73215 36.00675 2419 ft 7 kts 260°
2026-05-05 15:32 31.73199 36.00568 2419 ft 39 kts 260°
2026-05-05 15:32 31.73112 35.99966 2421 ft 108 kts 260°
2026-05-05 15:32 31.72960 35.98914 2453 ft 147 kts 262°
2026-05-05 15:32 31.72799 35.97693 2836 ft 153 kts 262°
2026-05-05 15:33 31.72652 35.96469 3375 ft 150 kts 264°
2026-05-05 15:33 31.72506 35.95246 3876 ft 152 kts 262°
2026-05-05 15:33 31.72292 35.94012 4385 ft 160 kts 260°
2026-05-05 15:33 31.72044 35.92656 4593 ft 179 kts 261°
2026-05-05 15:34 31.71803 35.91149 4749 ft 196 kts 262°
2026-05-05 15:34 31.71351 35.89509 4984 ft 226 kts 244°
2026-05-05 15:34 31.70248 35.88048 5369 ft 257 kts 218°
2026-05-05 15:34 31.68547 35.87342 6217 ft 270 kts 192°
2026-05-05 15:35 31.66656 35.87162 7084 ft 275 kts 187°
2026-05-05 15:35 31.64737 35.87085 8004 ft 275 kts 187°
2026-05-05 15:35 31.62804 35.87004 8811 ft 281 kts 188°
2026-05-05 15:35 31.60831 35.86899 9625 ft 285 kts 189°
2026-05-05 15:36 31.58839 35.86777 10444 ft 289 kts 189°
2026-05-05 15:36 31.56833 35.86643 11233 ft 289 kts 189°
2026-05-05 15:36 31.55662 35.86529 11654 ft 289 kts 200°
2026-05-05 15:36 31.54255 35.86237 12242 ft 291 kts 194°
2026-05-05 15:37 31.52357 35.86048 12799 ft 302 kts 188°
2026-05-05 15:37 31.50230 35.86241 13488 ft 316 kts 169°
2026-05-05 15:38 31.48225 35.87420 14166 ft 332 kts 146°
2026-05-05 15:38 31.46688 35.89485 14775 ft 344 kts 122°
2026-05-05 15:38 31.45800 35.92119 15290 ft 355 kts 107°
2026-05-05 15:38 31.45213 35.95015 15468 ft 374 kts 103°
2026-05-05 15:39 31.44645 35.98072 15654 ft 392 kts 104°
2026-05-05 15:39 31.43994 36.01236 15966 ft 404 kts 105°
2026-05-05 15:39 31.43273 36.04440 16561 ft 408 kts 106°
2026-05-05 15:39 31.42516 36.07656 17164 ft 411 kts 107°
2026-05-05 15:40 31.41739 36.10891 17765 ft 415 kts 107°
2026-05-05 15:40 31.40959 36.14110 18330 ft 418 kts 107°
2026-05-05 15:40 31.40163 36.17393 18838 ft 421 kts 107°
2026-05-05 15:40 31.39358 36.20712 19344 ft 424 kts 107°
2026-05-05 15:41 31.38546 36.24056 19840 ft 427 kts 107°
2026-05-05 15:41 31.37731 36.27413 20293 ft 431 kts 107°
2026-05-05 15:41 31.36905 36.30809 20771 ft 435 kts 107°
2026-05-05 15:41 31.36075 36.34220 21265 ft 437 kts 107°
2026-05-05 15:42 31.35237 36.37662 21749 ft 440 kts 108°
2026-05-05 15:42 31.34394 36.41115 22238 ft 443 kts 108°
2026-05-05 15:42 31.33542 36.44600 22704 ft 447 kts 108°
2026-05-05 15:42 31.32696 36.48058 23157 ft 450 kts 108°
2026-05-05 15:43 31.31832 36.51587 23574 ft 454 kts 108°
2026-05-05 15:43 31.30950 36.55164 23866 ft 459 kts 109°
2026-05-05 15:43 31.29990 36.58738 24245 ft 462 kts 111°
2026-05-05 15:43 31.28986 36.62297 24598 ft 466 kts 111°
2026-05-05 15:44 31.27965 36.65911 24949 ft 470 kts 111°
2026-05-05 15:44 31.26943 36.69556 25309 ft 474 kts 111°
2026-05-05 15:44 31.25918 36.73243 25663 ft 478 kts 111°
2026-05-05 15:44 31.24886 36.76964 25995 ft 484 kts 111°
2026-05-05 15:45 31.23843 36.80721 26383 ft 488 kts 111°
2026-05-05 15:45 31.22792 36.84506 26788 ft 492 kts 111°
2026-05-05 15:45 31.21730 36.88326 27194 ft 497 kts 111°
2026-05-05 15:45 31.20656 36.92183 27615 ft 501 kts 111°
2026-05-05 15:46 31.19570 36.96077 28025 ft 506 kts 111°
2026-05-05 15:46 31.18488 36.99949 28423 ft 510 kts 112°
2026-05-05 15:46 31.17382 37.03905 28839 ft 515 kts 112°
2026-05-05 15:46 31.16264 37.07897 29266 ft 519 kts 112°
2026-05-05 15:47 31.15136 37.11919 29690 ft 524 kts 112°
2026-05-05 15:47 31.14367 37.14660 29983 ft 527 kts 112°
2026-05-05 15:47 31.12842 37.20087 30533 ft 532 kts 112°
2026-05-05 15:47 31.11684 37.24202 30962 ft 535 kts 113°
2026-05-05 15:48 31.10517 37.28344 31390 ft 537 kts 113°
2026-05-05 15:48 31.09356 37.32455 31790 ft 541 kts 113°
2026-05-05 15:48 31.08159 37.36688 32188 ft 544 kts 114°
2026-05-05 15:48 31.06982 37.40845 32593 ft 547 kts 114°
2026-05-05 15:49 31.05785 37.45069 33004 ft 550 kts 114°
2026-05-05 15:49 31.04578 37.49321 33404 ft 552 kts 114°
2026-05-05 15:49 31.03380 37.53539 33864 ft 554 kts 114°
2026-05-05 15:49 31.02158 37.57828 34199 ft 558 kts 114°
2026-05-05 15:50 31.00932 37.62129 34569 ft 560 kts 114°
2026-05-05 15:50 30.99698 37.66451 34961 ft 562 kts 114°
2026-05-05 15:50 30.98465 37.70771 35457 ft 561 kts 114°
2026-05-05 15:50 30.97234 37.75077 35920 ft 560 kts 115°
2026-05-05 15:51 30.96002 37.79377 36436 ft 559 kts 115°
2026-05-05 15:51 30.94772 37.83663 36919 ft 558 kts 115°
2026-05-05 15:51 30.93541 37.87945 37412 ft 557 kts 115°
2026-05-05 15:51 30.92310 37.92221 37912 ft 555 kts 115°
2026-05-05 15:52 30.91084 37.96475 38357 ft 554 kts 115°
2026-05-05 15:52 30.89860 38.00714 38856 ft 552 kts 115°
2026-05-05 15:52 30.88645 38.04910 38974 ft 557 kts 115°
2026-05-05 15:53 30.86179 38.13424 38968 ft 553 kts 115°
2026-05-05 15:53 30.83713 38.21911 38971 ft 553 kts 115°
2026-05-05 15:54 30.81251 38.30366 39024 ft 551 kts 115°
2026-05-05 15:54 30.78776 38.38832 38984 ft 553 kts 116°
2026-05-05 15:55 30.76292 38.47314 38991 ft 554 kts 116°
2026-05-05 15:55 30.73818 38.55739 38988 ft 554 kts 116°
2026-05-05 15:56 30.71321 38.64215 38987 ft 554 kts 116°
2026-05-05 15:56 30.68822 38.72685 39016 ft 552 kts 116°
2026-05-05 15:57 30.66326 38.81112 39014 ft 551 kts 116°
2026-05-05 15:57 30.63828 38.89524 38996 ft 550 kts 116°
2026-05-05 15:58 30.61330 38.97913 39024 ft 549 kts 116°
2026-05-05 15:58 30.58828 39.06296 39026 ft 548 kts 116°
2026-05-05 15:59 30.56324 39.14661 39007 ft 548 kts 116°
2026-05-05 15:59 30.53818 39.23012 39009 ft 548 kts 116°
2026-05-05 16:00 30.51318 39.31320 39014 ft 548 kts 117°
2026-05-05 16:00 30.48800 39.39667 39006 ft 549 kts 117°
2026-05-05 16:01 30.46270 39.48028 39015 ft 550 kts 117°
2026-05-05 16:01 30.43787 39.56219 39028 ft 551 kts 117°
2026-05-05 16:02 30.41208 39.64532 39027 ft 548 kts 121°
2026-05-05 16:02 30.38063 39.72530 39035 ft 545 kts 123°
2026-05-05 16:03 30.34891 39.80527 39042 ft 547 kts 123°
2026-05-05 16:03 30.31711 39.88532 39055 ft 546 kts 123°
2026-05-05 16:04 30.28526 39.96513 39057 ft 546 kts 123°
2026-05-05 16:04 30.25332 40.04496 39026 ft 546 kts 124°
2026-05-05 16:05 30.22138 40.12461 39042 ft 545 kts 124°
2026-05-05 16:05 30.18946 40.20405 39041 ft 545 kts 124°
2026-05-05 16:06 30.15771 40.28288 39024 ft 544 kts 124°
2026-05-05 16:06 30.12572 40.36214 39022 ft 544 kts 124°
2026-05-05 16:07 30.09892 40.42842 39019 ft 544 kts 124°
2026-05-05 16:07 30.06716 40.50683 39028 ft 543 kts 124°
2026-05-05 16:08 30.03516 40.58569 39020 ft 542 kts 124°
2026-05-05 16:08 30.00311 40.66446 39013 ft 542 kts 124°
2026-05-05 16:09 29.97103 40.74318 39010 ft 542 kts 124°
2026-05-05 16:09 29.93891 40.82179 39010 ft 542 kts 124°
2026-05-05 16:10 29.90670 40.90047 39015 ft 542 kts 124°
2026-05-05 16:10 29.87451 40.97896 39014 ft 541 kts 124°
2026-05-05 16:11 29.84230 41.05731 39010 ft 541 kts 124°
2026-05-05 16:12 29.77790 41.21350 39003 ft 541 kts 125°
2026-05-05 16:13 29.70539 41.41494 39011 ft 550 kts 118°
2026-05-05 16:13 29.67962 41.49786 39007 ft 550 kts 118°
2026-05-05 16:14 29.62792 41.66311 39004 ft 551 kts 118°
2026-05-05 16:15 29.57588 41.82865 38979 ft 551 kts 119°
2026-05-05 16:16 29.52371 41.99375 38943 ft 552 kts 118°
2026-05-05 16:17 29.48434 42.11784 38974 ft 552 kts 119°
2026-05-05 16:18 29.44481 42.24195 38997 ft 551 kts 119°
2026-05-05 16:19 29.40528 42.36561 38985 ft 550 kts 119°
2026-05-05 16:19 29.36568 42.48904 38977 ft 549 kts 119°
2026-05-05 16:20 29.31301 42.65249 38948 ft 549 kts 119°
2026-05-05 16:22 29.24657 42.85755 38949 ft 550 kts 119°
2026-05-05 16:23 29.19307 43.02179 38944 ft 551 kts 119°
2026-05-05 16:23 29.14876 43.14155 38936 ft 539 kts 129°
2026-05-05 16:24 29.11096 43.21513 38936 ft 537 kts 130°
2026-05-05 16:25 29.05428 43.32594 38937 ft 538 kts 130°
2026-05-05 16:25 28.99741 43.43679 38914 ft 539 kts 130°
2026-05-05 16:26 28.92166 43.58386 38934 ft 539 kts 130°
2026-05-05 16:27 28.88359 43.65762 38931 ft 537 kts 130°
2026-05-05 16:27 28.84563 43.73106 38930 ft 537 kts 130°
2026-05-05 16:28 28.80763 43.80439 38924 ft 537 kts 130°
2026-05-05 16:28 28.76958 43.87770 38922 ft 536 kts 130°
2026-05-05 16:29 28.73186 43.95025 38914 ft 536 kts 130°
2026-05-05 16:29 28.69384 44.02324 38910 ft 535 kts 130°
2026-05-05 16:30 28.65586 44.09603 38910 ft 534 kts 130°
2026-05-05 16:30 28.61778 44.16885 38902 ft 534 kts 130°
2026-05-05 16:31 28.57972 44.24153 38884 ft 534 kts 130°
2026-05-05 16:31 28.54167 44.31408 38905 ft 534 kts 130°
2026-05-05 16:32 28.50360 44.38654 38891 ft 533 kts 130°
2026-05-05 16:32 28.46551 44.45890 38894 ft 533 kts 130°
2026-05-05 16:33 28.42765 44.53070 38894 ft 534 kts 130°
2026-05-05 16:33 28.38942 44.60309 38895 ft 534 kts 130°
2026-05-05 16:34 28.35121 44.67530 38889 ft 535 kts 130°
2026-05-05 16:34 28.31224 44.74863 38890 ft 553 kts 130°
2026-05-05 16:35 28.27253 44.82354 38889 ft 551 kts 130°
2026-05-05 16:35 28.23289 44.89818 38886 ft 553 kts 130°
2026-05-05 16:36 28.19314 44.97280 38887 ft 553 kts 130°
2026-05-05 16:36 28.15330 45.04744 38877 ft 553 kts 130°
2026-05-05 16:37 28.11367 45.12164 38877 ft 553 kts 130°
2026-05-05 16:37 28.07370 45.19636 38865 ft 553 kts 130°
2026-05-05 16:38 28.03380 45.27084 38872 ft 553 kts 130°
2026-05-05 16:38 27.99412 45.34476 38868 ft 553 kts 130°
2026-05-05 16:39 27.95406 45.41928 38852 ft 553 kts 130°
2026-05-05 16:39 27.91407 45.49357 38851 ft 554 kts 129°
2026-05-05 16:40 27.88036 45.57310 38866 ft 569 kts 117°
2026-05-05 16:40 27.85894 45.66033 38858 ft 581 kts 109°
2026-05-05 16:41 27.84093 45.74921 38853 ft 580 kts 110°
2026-05-05 16:41 27.82269 45.83760 38852 ft 581 kts 110°
2026-05-05 16:42 27.80417 45.92709 38848 ft 581 kts 110°
2026-05-05 16:42 27.78581 46.01554 38840 ft 581 kts 110°
2026-05-05 16:43 27.76729 46.10445 38840 ft 582 kts 110°
2026-05-05 16:43 27.74870 46.19340 38831 ft 581 kts 110°
2026-05-05 16:44 27.73015 46.28201 38833 ft 581 kts 110°
2026-05-05 16:44 27.71160 46.37091 38819 ft 581 kts 110°
2026-05-05 16:45 27.69304 46.45969 38823 ft 581 kts 109°
2026-05-05 16:45 27.67441 46.54831 38821 ft 581 kts 109°
2026-05-05 16:46 27.65582 46.63647 38818 ft 580 kts 109°
2026-05-05 16:46 27.63706 46.72511 38811 ft 581 kts 109°
2026-05-05 16:47 27.61825 46.81373 38809 ft 581 kts 110°
2026-05-05 16:47 27.59938 46.90231 38813 ft 581 kts 110°
2026-05-05 16:48 27.58045 46.99089 38807 ft 580 kts 109°
2026-05-05 16:48 27.56160 47.07879 38800 ft 581 kts 109°
2026-05-05 16:49 27.54255 47.16739 38799 ft 580 kts 110°
2026-05-05 16:49 27.52348 47.25571 38804 ft 580 kts 110°
2026-05-05 16:50 27.50433 47.34412 38793 ft 581 kts 110°
2026-05-05 16:50 27.48521 47.43213 38771 ft 582 kts 110°
2026-05-05 16:51 27.46594 47.52059 38792 ft 581 kts 110°
2026-05-05 16:51 27.44657 47.60905 38805 ft 581 kts 111°
2026-05-05 16:52 27.42260 47.69553 38789 ft 579 kts 114°
2026-05-05 16:52 27.39819 47.78184 38752 ft 579 kts 114°
2026-05-05 16:53 27.37391 47.86747 38775 ft 577 kts 115°
2026-05-05 16:53 27.34939 47.95350 38785 ft 577 kts 115°
2026-05-05 16:54 27.32482 48.03944 38772 ft 576 kts 115°
2026-05-05 16:54 27.30067 48.12479 38745 ft 576 kts 113°
2026-05-05 16:55 27.27808 48.21114 38769 ft 575 kts 113°
2026-05-05 16:55 27.25554 48.29714 38763 ft 571 kts 113°
2026-05-05 16:56 27.23288 48.38252 38763 ft 569 kts 113°
2026-05-05 16:56 27.21010 48.46785 38748 ft 568 kts 112°
2026-05-05 16:57 27.18739 48.55277 38756 ft 568 kts 113°
2026-05-05 16:57 27.16477 48.63710 38743 ft 568 kts 113°
2026-05-05 16:58 27.14199 48.72186 38741 ft 566 kts 113°
2026-05-05 16:58 27.11916 48.80652 38740 ft 566 kts 113°
2026-05-05 16:59 27.10238 48.87775 38732 ft 572 kts 105°
2026-05-05 16:59 27.09389 48.98186 38735 ft 578 kts 97°
2026-05-05 17:00 27.09059 49.05688 38738 ft 578 kts 97°
2026-05-05 17:00 27.08640 49.14702 38735 ft 578 kts 97°
2026-05-05 17:01 27.08217 49.23718 38730 ft 578 kts 97°
2026-05-05 17:01 27.07784 49.32745 38739 ft 579 kts 97°
2026-05-05 17:02 27.07334 49.41769 38723 ft 579 kts 97°
2026-05-05 17:02 27.06900 49.50733 38725 ft 580 kts 97°
2026-05-05 17:03 27.06456 49.59787 38720 ft 581 kts 97°
2026-05-05 17:03 27.06005 49.68835 38721 ft 581 kts 97°
2026-05-05 17:04 27.05547 49.77893 38733 ft 582 kts 97°
2026-05-05 17:04 27.05083 49.86964 38742 ft 582 kts 97°
2026-05-05 17:05 27.04613 49.96043 38759 ft 583 kts 97°
2026-05-05 17:05 27.04633 50.05130 38757 ft 582 kts 93°
2026-05-05 17:06 27.04717 50.14174 38753 ft 582 kts 93°
2026-05-05 17:06 27.04799 50.23269 38757 ft 583 kts 93°
2026-05-05 17:07 27.04749 50.32345 38761 ft 579 kts 99°
2026-05-05 17:07 27.03286 50.41128 38765 ft 568 kts 113°
2026-05-05 17:08 27.00433 50.49262 38765 ft 561 kts 120°
2026-05-05 17:08 26.97374 50.57336 38764 ft 560 kts 120°
2026-05-05 17:09 26.94323 50.65381 38770 ft 560 kts 120°
2026-05-05 17:09 26.91273 50.73386 38774 ft 562 kts 120°
2026-05-05 17:10 26.88197 50.81441 38773 ft 562 kts 120°
2026-05-05 17:10 26.85120 50.89481 38786 ft 562 kts 120°
2026-05-05 17:11 26.82036 50.97526 38767 ft 562 kts 120°
2026-05-05 17:11 26.78970 51.05578 38766 ft 562 kts 119°
2026-05-05 17:12 26.76128 51.13762 38774 ft 566 kts 115°
2026-05-05 17:12 26.73500 51.22002 38775 ft 565 kts 115°
2026-05-05 17:13 26.70845 51.30265 38781 ft 564 kts 115°
2026-05-05 17:13 26.68179 51.38542 38780 ft 566 kts 115°
2026-05-05 17:14 26.65507 51.46826 38788 ft 566 kts 115°
2026-05-05 17:14 26.62865 51.55049 38786 ft 566 kts 115°
2026-05-05 17:15 26.60206 51.63314 38789 ft 565 kts 115°
2026-05-05 17:15 26.57540 51.71571 38787 ft 564 kts 115°
2026-05-05 17:16 26.54870 51.79824 38785 ft 564 kts 115°
2026-05-05 17:16 26.52219 51.88009 38788 ft 564 kts 115°
2026-05-05 17:17 26.49498 51.96229 38781 ft 562 kts 115°
2026-05-05 17:17 26.46763 52.04415 38790 ft 562 kts 115°
2026-05-05 17:18 26.44029 52.12604 38791 ft 563 kts 115°
2026-05-05 17:18 26.41311 52.20732 38788 ft 563 kts 115°
2026-05-05 17:19 26.38572 52.28906 38792 ft 563 kts 115°
2026-05-05 17:19 26.35823 52.37089 38794 ft 561 kts 115°
2026-05-05 17:20 26.32900 52.45153 38786 ft 559 kts 118°
2026-05-05 17:20 26.29776 52.53097 38791 ft 559 kts 118°
2026-05-05 17:21 26.26704 52.61012 38805 ft 560 kts 118°
2026-05-05 17:22 26.22102 52.72977 38797 ft 559 kts 117°
2026-05-05 17:22 26.19049 52.80961 38796 ft 561 kts 117°
2026-05-05 17:23 26.15985 52.88953 38800 ft 560 kts 117°
2026-05-05 17:23 26.12921 52.96923 38797 ft 560 kts 118°
2026-05-05 17:24 26.09846 53.04907 38789 ft 561 kts 117°
2026-05-05 17:24 26.06906 53.12883 38800 ft 561 kts 116°
2026-05-05 17:25 26.03972 53.20929 38796 ft 561 kts 116°
2026-05-05 17:25 26.01014 53.28968 38798 ft 561 kts 116°
2026-05-05 17:26 25.98045 53.37006 38799 ft 562 kts 116°
2026-05-05 17:26 25.95075 53.45030 38798 ft 561 kts 116°
2026-05-05 17:27 25.92126 53.53063 38798 ft 562 kts 115°
2026-05-05 17:27 25.89372 53.61139 38799 ft 562 kts 114°
2026-05-05 17:28 25.86612 53.69227 38223 ft 558 kts 115°
2026-05-05 17:28 25.85226 53.73249 37415 ft 558 kts 115°
2026-05-05 17:28 25.83831 53.77273 36573 ft 558 kts 115°
2026-05-05 17:28 25.82436 53.81288 35738 ft 558 kts 114°
2026-05-05 17:29 25.81039 53.85306 34917 ft 557 kts 114°
2026-05-05 17:29 25.79644 53.89313 34093 ft 557 kts 114°
2026-05-05 17:29 25.78244 53.93329 33080 ft 559 kts 114°
2026-05-05 17:29 25.76848 53.97336 32328 ft 554 kts 114°
2026-05-05 17:30 25.75465 54.01301 31659 ft 548 kts 114°
2026-05-05 17:30 25.74163 54.05270 30995 ft 544 kts 111°
2026-05-05 17:30 25.72967 54.09232 30379 ft 539 kts 110°
2026-05-05 17:30 25.71797 54.13160 29755 ft 534 kts 110°
2026-05-05 17:31 25.70629 54.17040 29126 ft 527 kts 110°
2026-05-05 17:31 25.69480 54.20815 28533 ft 519 kts 110°
2026-05-05 17:31 25.68329 54.24569 28020 ft 510 kts 110°
2026-05-05 17:31 25.67187 54.28270 27366 ft 505 kts 110°
2026-05-05 17:32 25.66057 54.31928 26796 ft 499 kts 110°
2026-05-05 17:32 25.64940 54.35536 26226 ft 492 kts 110°
2026-05-05 17:32 25.63835 54.39102 25655 ft 486 kts 110°
2026-05-05 17:32 25.62738 54.42633 25086 ft 480 kts 110°
2026-05-05 17:33 25.61654 54.46122 24545 ft 474 kts 110°
2026-05-05 17:33 25.60586 54.49556 24001 ft 468 kts 110°
2026-05-05 17:33 25.59531 54.52946 23457 ft 463 kts 110°
2026-05-05 17:33 25.58606 54.56336 22802 ft 458 kts 102°
2026-05-05 17:34 25.58200 54.59807 22165 ft 453 kts 92°
2026-05-05 17:34 25.58316 54.63270 21538 ft 447 kts 82°
2026-05-05 17:34 25.58771 54.66649 20895 ft 442 kts 81°
2026-05-05 17:34 25.59207 54.70008 20282 ft 437 kts 82°
2026-05-05 17:35 25.59623 54.73325 19680 ft 432 kts 82°
2026-05-05 17:35 25.60029 54.76588 19400 ft 420 kts 81°
2026-05-05 17:35 25.60421 54.79738 19249 ft 405 kts 81°
2026-05-05 17:35 25.60800 54.82769 19119 ft 391 kts 82°
2026-05-05 17:36 25.60889 54.85722 18709 ft 387 kts 95°
2026-05-05 17:36 25.60349 54.88627 18264 ft 385 kts 108°
2026-05-05 17:36 25.59316 54.91347 17767 ft 382 kts 114°
2026-05-05 17:36 25.58251 54.94024 17301 ft 379 kts 113°
2026-05-05 17:37 25.57214 54.96686 16819 ft 375 kts 113°
2026-05-05 17:37 25.56532 54.98446 16509 ft 373 kts 113°
2026-05-05 17:37 25.55168 55.01957 15875 ft 369 kts 113°
2026-05-05 17:37 25.54058 55.04508 15415 ft 366 kts 120°
2026-05-05 17:38 25.52779 55.06932 14947 ft 363 kts 120°
2026-05-05 17:38 25.51522 55.09341 14511 ft 360 kts 119°
2026-05-05 17:38 25.50279 55.11739 14053 ft 357 kts 119°
2026-05-05 17:38 25.49047 55.14116 13613 ft 355 kts 119°
2026-05-05 17:39 25.47824 55.16473 13128 ft 352 kts 119°
2026-05-05 17:39 25.46609 55.18805 12663 ft 348 kts 121°
2026-05-05 17:39 25.45196 55.20970 12172 ft 347 kts 130°
2026-05-05 17:39 25.43574 55.22931 11689 ft 344 kts 132°
2026-05-05 17:40 25.42006 55.24840 11494 ft 334 kts 131°
2026-05-05 17:40 25.40483 55.26710 11374 ft 321 kts 131°
2026-05-05 17:40 25.39019 55.28512 11262 ft 309 kts 131°
2026-05-05 17:40 25.37598 55.30260 10986 ft 304 kts 131°
2026-05-05 17:41 25.36151 55.31955 10641 ft 303 kts 137°
2026-05-05 17:41 25.34475 55.33350 10292 ft 301 kts 148°
2026-05-05 17:41 25.32629 55.34433 9940 ft 300 kts 152°
2026-05-05 17:41 25.30797 55.35486 9591 ft 299 kts 151°
2026-05-05 17:42 25.28965 55.36560 9217 ft 297 kts 151°
2026-05-05 17:42 25.27147 55.37630 8815 ft 296 kts 151°
2026-05-05 17:42 25.25330 55.38699 8406 ft 296 kts 152°
2026-05-05 17:42 25.23506 55.39769 8006 ft 296 kts 152°
2026-05-05 17:43 25.21731 55.40809 7682 ft 293 kts 152°
2026-05-05 17:43 25.19919 55.41870 7304 ft 292 kts 152°
2026-05-05 17:43 25.18130 55.42917 6995 ft 290 kts 152°
2026-05-05 17:43 25.16339 55.43963 6650 ft 292 kts 152°
2026-05-05 17:44 25.14552 55.45008 6439 ft 291 kts 152°
2026-05-05 17:44 25.12770 55.46051 6197 ft 290 kts 152°
2026-05-05 17:44 25.11154 55.47355 5978 ft 288 kts 134°
2026-05-05 17:44 25.09990 55.49090 5854 ft 277 kts 120°
2026-05-05 17:45 25.09011 55.50905 5574 ft 274 kts 121°
2026-05-05 17:45 25.08016 55.52696 5265 ft 273 kts 121°
2026-05-05 17:45 25.07014 55.54480 4982 ft 273 kts 121°
2026-05-05 17:45 25.06026 55.56236 4914 ft 264 kts 121°
2026-05-05 17:46 25.05085 55.57908 4839 ft 254 kts 121°
2026-05-05 17:46 25.04173 55.59534 4756 ft 245 kts 121°
2026-05-05 17:46 25.03303 55.61092 4711 ft 232 kts 121°
2026-05-05 17:46 25.02639 55.62654 4600 ft 221 kts 98°
2026-05-05 17:47 25.02757 55.64250 4523 ft 199 kts 69°
2026-05-05 17:47 25.03481 55.65490 4066 ft 192 kts 41°
2026-05-05 17:47 25.04627 55.66203 3549 ft 191 kts 15°
2026-05-05 17:47 25.05942 55.66259 3043 ft 191 kts 349°
2026-05-05 17:48 25.07157 55.65659 2483 ft 194 kts 328°
2026-05-05 17:48 25.08296 55.64844 2103 ft 196 kts 330°
2026-05-05 17:48 25.09450 55.64036 2010 ft 198 kts 325°
2026-05-05 17:48 25.10449 55.62978 2007 ft 200 kts 310°
2026-05-05 17:49 25.11265 55.61725 2004 ft 202 kts 303°
2026-05-05 17:49 25.12013 55.60410 2004 ft 202 kts 302°
2026-05-05 17:49 25.12744 55.59089 2002 ft 202 kts 302°
2026-05-05 17:49 25.13477 55.57767 2002 ft 202 kts 302°
2026-05-05 17:50 25.14198 55.56466 2004 ft 194 kts 302°
2026-05-05 17:50 25.14893 55.55212 2000 ft 189 kts 302°
2026-05-05 17:50 25.15574 55.53981 1998 ft 187 kts 302°
2026-05-05 17:50 25.16256 55.52752 2000 ft 188 kts 302°
2026-05-05 17:51 25.16943 55.51521 2004 ft 188 kts 303°
2026-05-05 17:51 25.17592 55.50336 1995 ft 173 kts 303°
2026-05-05 17:51 25.17999 55.49601 1997 ft 166 kts 303°
2026-05-05 17:51 25.18791 55.48174 1750 ft 159 kts 303°
2026-05-05 17:52 25.19169 55.47487 1612 ft 158 kts 303°
2026-05-05 17:52 25.19728 55.46450 1401 ft 156 kts 303°
2026-05-05 17:52 25.20279 55.45429 1270 ft 155 kts 303°
2026-05-05 17:52 25.20833 55.44411 1049 ft 153 kts 304°
2026-05-05 17:53 25.21394 55.43431 880 ft 149 kts 304°
2026-05-05 17:53 25.21931 55.42464 680 ft 148 kts 303°
2026-05-05 17:53 25.22460 55.41504 499 ft 147 kts 302°
2026-05-05 17:53 25.22996 55.40541 322 ft 147 kts 304°
2026-05-05 17:54 25.23530 55.39586 67 ft 146 kts 303°
2026-05-05 17:54 25.24036 55.38678 27 ft 123 kts 303°
2026-05-05 17:54 25.24381 55.38063 27 ft 59 kts 299°
2026-05-05 17:54 25.24580 55.37707 27 ft 50 kts 302°
2026-05-05 17:55 25.24736 55.37417 27 ft 34 kts 298°
2026-05-05 17:55 25.24782 55.37198 27 ft 21 kts 275°
2026-05-05 17:55 25.24786 55.37079 27 ft 17 kts 271°
2026-05-05 17:55 25.24773 55.36959 27 ft 12 kts 213°
2026-05-05 17:56 25.24723 55.36944 27 ft 1 kts 140°
2026-05-05 17:56 25.24702 55.36965 27 ft 7 kts 140°
2026-05-05 17:56 25.24656 55.37018 27 ft 12 kts 120°
2026-05-05 17:56 25.24615 55.37087 27 ft 6 kts 156°
2026-05-05 17:57 25.24576 55.37082 27 ft 8 kts 215°
2026-05-05 17:57 25.24540 55.37057 27 ft 5 kts 211°
2026-05-05 17:57 25.24530 55.37051 27 ft 1 kts 210°